CAPE
2365 2302 2319 2328 2215 1721 1880 2768 2615 2540 2547 2366 2785 2270 1966 2139 2278 2990 2706 3174 3601 3619 3743 4091 4074 4041 3642 3831 3744 3723 4148 3466 3299 4118 3606 3720 3752 3128 2631 2636 2393 2641
2519 2425 2596 2626 2673 2619 2687 2863 2991 2780 2968 2749 2610 3058 2721 2500 2017 3209 2743 3290 3508 3439 3820 3793 4306 4221 4102 3860 4198 4133 4030 3927 3606 2889 3981 3694 3892 3464 2741 3023 2650 3324
2463 2751 2763 2595 2508 2836 1829 2553 3155 3104 3001 2515 2668 3468 2903 2563 2187 2652 3126 3103 3067 2937 3929 3853 4112 4332 4097 4063 4314 4210 4129 4181 3867 3278 3688 3736 3797 3673 3543 2404 2764 2719
2505 2488 2212 2112 2310 2507 2469 2730 3135 3099 2482 2354 2116 2288 2511 1748 2279 2501 3204 3333 3320 3488 3458 3520 3580 3666 4001 3939 4038 4062 4183 4339 4104 4150 3826 3981 4007 3822 3390 3406 3063 2936
2460 2492 2254 2131 2237 2595 2849 2863 2477 2774 2303 2250 1940 1840 2463 2749 2836 2633 2966 3088 3537 3452 3604 3670 3789 3657 4024 4084 3988 4078 3775 3948 4016 4272 4028 3898 4344 4192 3666 3574 3675 3379
2497 2473 2490 2392 2543 2932 2980 2902 2779 2474 2324 2105 2307 1909 2021 3232 2632 2699 2731 2805 2981 2714 2605 2906 3370 3179 3506 3878 3982 3928 3634 3197 3474 4061 3905 4162 3845 3921 3552 3795 3684 3577
2544 2588 2375 2489 2374 2720 2950 3007 3050 2765 2345 2039 2507 2152 1796 2108 2593 2656 2990 2949 2611 2788 2410 2538 3193 3166 3073 3483 3809 4109 4128 3780 3653 3882 3900 3988 4210 3992 3312 3437 3883 3782
2395 2308 2464 2519 2218 2431 2833 3021 2986 2981 2862 2524 2432 2642 2073 1665 2323 2418 2961 2986 2790 2861 2550 2764 3425 3460 3022 3376 3782 3920 3866 3352 3416 4061 3868 3897 3960 3895 3848 3617 3926 4026
2518 2436 2430 2384 2043 2262 2325 2464 2838 2794 2968 2690 1954 2097 2367 1879 2032 2027 2640 3066 2878 2950 2926 2856 3352 3407 3022 3088 3502 3794 3822 3294 2928 3190 3693 3746 3826 3986 3727 3707 3822 4061
2624 2526 2215 2285 2283 2218 2241 2483 2650 2363 2877 2701 1852 1870 2117 2301 2077 2017 2845 3153 3010 3046 2928 2679 3460 3058 2926 3052 3428 3708 3702 3743 3435 3154 3120 3438 3732 3722 3666 3660 3602 3783
2420 2429 2432 2384 2116 2134 2242 2391 2764 2573 2388 2302 1942 1757 1924 2102 2470 2243 2733 3220 2904 3139 3057 2659 3171 2957 2950 2698 3029 3322 3626 3568 3504 3512 3308 3386 3552 3740 3827 3562 3587 3498
2551 2453 2279 2264 2235 2225 2344 2220 2358 2402 2272 2501 2030 1825 2000 1882 2464 2479 2622 3004 2745 2872 3186 2966 3062 3078 3153 2926 2630 2809 3297 3394 3588 3537 3143 3312 3488 3536 3526 3463 3416 3467
2521 2493 2515 2310 2537 2346 2255 2330 2271 2196 2308 2338 2240 1901 1694 1650 1793 2480 2708 2982 2910 2830 2853 3178 3178 3144 3440 3442 3025 2682 2921 3368 3252 3482 3277 3222 3311 3269 3176 3179 3264 3423
3008 2633 2450 2731 2630 2589 2715 2730 2335 2128 2796 2889 2802 2381 1645 1738 1819 2161 2763 2991 3023 2908 2810 3246 3429 3352 3653 3741 3493 2992 2945 3293 3366 3266 3159 3167 2962 3282 3286 3047 3196 3191
3352 3074 2954 3025 2912 2910 2880 2720 2455 2480 2979 3143 2948 2422 1806 1651 1990 1953 2375 2766 3235 3127 3044 3168 3511 3445 3554 3809 3634 3339 2857 2916 3196 3162 3113 3017 3104 2991 3119 3252 3120 2765
3619 3278 3121 3209 3084 3104 3061 2867 2842 2803 2644 2986 3013 2748 2332 1779 1718 2464 2339 2582 3323 3651 3503 3289 3435 3495 3326 3291 3296 3343 3066 2377 2927 3231 3036 2806 3205 3225 3070 3170 2956 2541
3782 3572 3324 3352 3351 3391 3265 3174 3105 2978 2806 2902 3186 3002 2566 2451 2037 2592 2480 2420 2737 3299 3468 3370 3504 3394 3314 3085 3165 3093 3030 2800 2699 3310 3398 3321 3079 3269 3110 2772 2539 2515
3996 3833 3470 3534 3630 3604 3427 3424 3457 3224 3053 2965 3188 3055 3026 2794 2438 2326 2592 2740 2706 3084 3177 3292 3495 3497 3383 3193 3288 3224 3010 3040 2788 2995 3372 3533 3413 2862 3130 3076 2776 2294
4223 4091 3775 3663 3826 3834 3707 3569 3573 3526 3293 3147 3170 3255 3191 3181 2730 2446 2448 2754 2901 3052 3155 3335 3309 2799 3202 3187 3231 3302 3156 2971 2764 2533 2477 3100 3292 3214 2833 2933 2970 2732
4532 4326 4074 3820 3944 4052 4013 3722 3564 3710 3501 3247 3092 3476 3509 3455 3148 2768 2604 2703 2969 3320 3222 3193 3218 2711 2958 3195 3171 3192 3242 3155 3292 2877 2590 2498 3100 3447 3126 2933 3203 3143
4905 4607 4323 4069 4093 4128 4186 3940 3673 3744 3805 3480 3099 3396 3728 3664 3314 2923 2912 2921 2796 3266 3549 3118 3014 2959 2597 3011 3171 3154 3204 3195 3322 3288 2761 2550 2848 3364 3540 3210 3142 3300
5044 4848 4690 4293 4234 4212 4285 4129 3906 3832 3912 3582 2824 2623 3161 3793 3812 3226 3166 3149 2949 2676 2600 3163 2696 3152 2777 2759 3013 3103 3100 3143 3093 3535 3448 3430 3139 3092 3579 3852 3624 3464
4943 4866 4959 4654 4376 4274 4325 4261 4028 3892 3911 3718 3158 2735 2910 3388 3557 3264 3310 2965 2773 2834 2705 2804 3605 2925 2843 2754 2753 2961 3015 2943 3079 3320 3364 3279 3250 3800 3994 4133 4227 4081
4946 5014 5059 4974 4689 4404 4417 4342 4264 3878 3702 3830 3538 3213 2851 3072 3367 3680 3416 3089 2838 2902 2615 3096 3445 2881 2706 2696 2705 2781 2827 2854 3156 3360 3260 2959 2934 3098 3484 4016 4145 4370
4918 4889 5093 4990 5047 4842 4616 4821 4403 3951 3652 3851 3491 3302 3296 3680 3651 3714 3407 3317 2992 2954 2982 3064 2893 3868 2637 2545 2612 2674 2723 2917 3305 3395 3256 3066 2949 2858 2940 3213 3637 3932
4574 4760 4944 4941 5201 5136 5030 5089 4872 4157 4136 4193 3847 3341 3098 3110 3392 3694 3741 3527 3107 3233 3524 3368 2919 3949 2640 2488 2533 2654 2767 2960 3558 3467 3268 3324 3364 3422 3370 3310 3258 3476
Wind_Speed
8 7 7 9 10 10 10 9 8 6 5 4 3 2 0 1 2 5 5 5 4 1 0 0 1 0 1 1 1 3 4 3 4 4 5 4 4 4 3 2 2 1
8 8 9 10 11 11 11 10 9 8 6 5 3 2 1 3 0 2 3 3 3 3 4 4 4 5 5 5 5 7 7 7 8 8 7 7 6 5 5 3 3 1
10 9 9 9 10 9 7 10 10 9 8 4 3 4 4 3 2 2 1 1 2 5 5 6 6 7 8 8 7 8 8 8 8 10 8 8 8 8 8 7 4 4
12 9 10 10 11 10 10 10 10 10 8 6 4 5 5 3 4 1 3 1 1 3 4 5 6 7 7 8 6 7 7 8 8 9 8 8 9 10 11 10 8 5
14 12 12 12 13 13 11 10 8 9 7 7 5 6 7 7 6 4 4 2 2 2 2 3 4 5 5 5 5 5 6 6 7 7 8 8 9 10 12 12 10 9
15 14 15 15 15 14 12 10 10 10 8 7 6 6 7 8 7 6 4 2 1 1 2 3 3 4 4 4 4 4 5 6 7 7 8 9 10 11 12 11 11 10
18 16 16 17 16 15 13 12 12 11 10 8 10 8 8 9 9 8 6 4 1 1 2 2 3 4 4 4 5 5 5 5 5 8 8 9 9 10 11 9 10 9
21 19 18 18 17 16 14 14 13 13 13 10 10 10 10 10 10 9 8 6 4 3 2 4 5 6 6 6 7 6 7 7 7 6 9 9 8 9 9 9 8 9
24 22 20 19 18 17 15 15 14 14 14 11 10 11 12 12 12 10 11 9 7 7 5 6 8 7 7 8 8 8 8 8 9 9 9 10 10 10 10 9 9 7
25 24 22 20 19 18 18 17 17 16 16 13 11 12 13 15 14 11 12 12 9 9 8 7 9 9 9 9 10 10 9 8 8 10 10 10 10 11 11 10 10 8
24 25 23 22 20 19 19 19 19 19 18 15 13 13 14 16 16 14 14 14 12 12 12 9 9 10 10 10 10 10 10 9 8 8 10 10 10 10 10 10 9 8
24 24 24 23 21 20 21 21 20 20 20 18 16 14 16 16 17 16 15 15 15 14 14 13 11 11 11 10 11 11 11 9 8 8 10 11 11 11 10 9 9 8
23 23 23 24 23 22 22 22 21 21 21 21 19 17 17 17 17 17 18 18 17 16 15 15 13 13 13 12 10 11 12 10 9 9 9 10 11 12 11 11 10 8
20 22 23 24 24 24 24 24 22 22 23 23 22 20 18 18 19 19 20 20 20 17 16 16 15 14 14 14 12 12 13 12 10 9 10 10 11 11 11 11 10 9
18 19 21 24 24 24 23 23 24 24 25 25 24 21 20 19 21 21 21 21 21 19 17 17 16 15 16 16 15 13 13 14 12 10 10 11 11 11 11 11 9 9
17 17 18 21 23 24 23 23 24 25 25 26 26 24 22 21 22 24 22 22 23 22 19 17 17 17 17 20 19 16 14 14 13 12 10 10 11 11 10 11 11 9
16 16 15 17 20 22 22 22 23 25 24 26 27 27 25 24 23 24 24 23 23 22 20 18 17 17 21 22 21 20 17 15 14 14 12 11 10 11 10 9 9 10
17 16 14 14 17 19 21 20 22 23 24 24 27 28 28 27 24 23 24 25 24 23 21 19 18 19 24 23 22 20 18 16 15 14 14 13 12 11 10 10 8 9
18 17 15 14 14 17 19 19 19 21 22 23 24 28 30 28 26 25 24 25 26 24 22 21 19 23 26 25 23 21 19 17 15 14 14 14 14 12 10 10 10 9
19 18 16 14 14 15 17 18 18 18 20 22 23 26 28 27 26 26 25 25 26 26 25 23 20 27 27 27 24 23 21 18 14 15 14 14 15 14 12 10 10 10
19 19 18 16 15 15 16 17 17 17 18 21 22 23 26 26 26 26 26 25 25 27 27 25 22 30 29 28 26 24 22 19 15 14 14 15 15 15 15 13 11 11
19 20 19 18 16 16 16 17 18 17 17 19 20 21 23 26 26 25 25 25 25 25 25 25 26 33 30 30 28 25 24 20 16 14 13 15 17 16 16 16 14 12
18 20 21 20 19 18 18 19 19 18 17 18 19 20 21 23 24 23 25 25 24 25 23 24 28 30 31 30 30 27 25 21 17 15 14 14 16 17 16 17 16 15
19 21 22 23 21 19 20 20 21 20 18 19 19 19 19 21 23 23 23 23 23 24 22 23 26 29 28 28 29 30 27 21 18 16 15 15 15 15 16 16 15 14
20 21 22 24 24 22 21 21 21 21 20 20 19 18 19 21 22 22 22 23 21 22 22 23 22 28 26 28 27 29 26 20 19 17 15 16 16 15 15 15 15 13
20 21 22 23 25 25 22 21 22 22 22 21 20 19 19 19 21 22 21 20 21 21 22 22 19 25 25 25 27 27 26 22 19 17 15 15 16 17 17 17 15 15
Wind_Direction
255 238 232 221 215 214 216 226 229 231 231 244 260 275 110 242 195 288 307 307 331 6 349 207 261 89 105 139 91 81 114 58 81 14 33 40 19 18 30 11 347 323
263 250 238 236 228 223 217 226 228 227 231 232 239 237 223 226 240 239 307 329 0 61 83 74 83 86 87 84 81 79 81 84 81 72 49 43 53 63 56 68 77 40
263 255 254 258 251 248 247 231 230 230 229 221 214 222 234 217 251 177 222 90 54 74 78 83 82 85 82 82 72 75 70 74 70 74 62 52 53 54 68 65 48 61
272 262 256 259 254 257 248 241 238 235 232 220 196 210 226 217 220 212 183 148 135 88 75 80 75 69 74 75 70 64 61 56 61 66 65 53 49 59 59 59 77 68
278 266 255 253 250 251 251 250 262 252 243 232 218 203 215 213 231 224 199 203 167 98 84 68 68 64 56 66 63 62 55 48 52 50 61 54 48 47 57 61 61 67
266 261 258 258 256 257 257 258 254 258 254 252 242 222 218 225 238 232 222 236 169 75 48 39 32 44 25 31 39 40 47 43 35 32 43 52 49 43 48 48 54 56
277 267 269 262 267 264 261 257 253 252 256 238 238 229 228 232 239 234 239 229 231 225 359 331 335 354 352 349 2 6 27 31 41 10 28 38 45 56 56 43 45 51
279 271 267 262 273 271 271 266 261 253 256 240 244 236 234 238 237 237 237 245 234 242 247 297 308 319 336 330 341 357 4 10 30 16 11 27 32 37 46 57 46 46
273 272 269 274 281 276 283 282 273 268 260 254 244 243 237 237 237 235 235 247 236 241 248 270 297 310 319 322 331 350 358 4 2 13 9 11 24 28 27 33 53 57
271 272 281 281 283 277 286 284 280 277 268 265 252 246 245 240 244 240 238 245 246 246 259 260 285 302 314 322 327 340 353 359 354 355 7 8 13 19 20 17 26 43
280 278 279 283 284 280 288 286 284 282 274 276 266 255 252 248 246 246 241 248 253 252 264 270 277 297 308 319 319 326 341 350 352 344 354 3 9 14 15 11 15 25
284 283 285 286 283 280 285 285 282 281 282 278 277 266 259 258 254 253 248 254 254 256 261 271 273 286 298 310 320 321 325 337 339 344 350 357 5 13 14 10 11 14
294 290 284 283 278 274 273 276 279 282 284 284 278 274 272 271 267 260 253 258 261 260 263 269 275 285 293 304 310 310 315 323 335 340 348 351 358 10 15 10 12 13
300 290 288 281 277 269 267 272 274 275 275 276 275 278 280 277 277 271 261 262 267 267 266 268 275 283 291 300 305 306 307 316 327 332 344 349 355 1 9 11 3 9
303 293 286 282 282 277 273 271 271 268 270 272 273 276 276 277 275 277 272 270 271 271 271 271 278 284 287 295 302 308 307 315 322 329 333 338 346 356 0 0 1 2
308 302 296 290 288 285 280 275 271 269 268 271 274 274 269 267 267 272 279 277 275 277 275 274 275 278 292 311 310 306 308 311 311 318 326 330 333 342 352 352 357 2
306 307 305 303 298 289 285 281 278 273 267 266 269 272 269 265 263 270 278 278 280 281 283 278 276 280 301 305 313 321 312 307 305 308 319 325 329 328 336 341 337 339
305 306 310 311 305 301 296 287 281 279 275 269 269 273 269 266 267 267 268 273 276 280 283 281 276 284 298 305 310 317 315 306 304 301 308 320 326 329 326 328 331 327
301 305 310 311 312 308 300 293 286 284 283 278 275 271 270 268 269 269 267 268 272 276 278 278 275 283 294 303 308 314 319 310 299 298 302 311 318 324 321 316 317 317
297 302 306 309 308 307 303 302 294 287 284 280 274 270 272 272 272 270 267 265 266 272 272 272 274 277 296 301 307 314 318 312 296 295 297 300 306 313 315 313 313 314
296 300 302 303 307 308 305 306 301 288 285 280 277 274 272 271 270 267 265 266 266 266 270 273 274 283 294 300 305 311 315 306 294 289 283 286 291 299 306 311 309 313
294 297 297 298 303 308 309 309 304 297 288 280 279 279 273 268 265 264 267 268 267 265 266 272 269 284 293 299 303 306 310 288 292 290 275 267 274 289 299 302 307 308
290 295 294 296 301 309 313 311 305 299 288 278 280 280 278 276 273 270 263 267 268 266 262 262 262 278 290 298 298 305 296 281 297 286 279 272 260 264 277 289 298 303
283 290 292 294 299 309 311 305 302 297 295 284 284 284 284 282 276 270 266 265 269 270 272 261 261 270 288 292 298 299 299 290 290 284 278 274 267 269 271 274 285 309
280 285 288 293 297 303 304 302 302 300 294 286 285 283 280 273 272 271 267 265 273 273 276 273 265 270 288 290 294 296 294 284 283 281 279 274 274 275 280 281 285 295
276 281 285 291 294 298 298 297 292 294 297 292 287 283 278 278 278 275 276 270 270 271 271 274 276 267 284 295 296 297 302 287 278 280 281 280 277 279 280 286 292 293